• In Uzbekistan
  • List of Countries
  • For 7 days
  • Water Temperature
  • Satellite Maps
  • Weather Map
  • Weather Widgets
  • user-avatar
    Login

    Hourly Weather Malanje

    Today, 23 August, Wednesday

    Time Temperature Precipitation Wind Pressure Humidity
    00:00 +23°C° 0 mm 1 mps 665 mmHg 29%
    01:00 +22°C° 0 mm 1 mps 665 mmHg 32%
    02:00 +21°C° 0 mm 1 mps 665 mmHg 40%
    03:00 +20°C° 0 mm 1 mps 664 mmHg 47%
    04:00 +19°C° 0 mm 1 mps 664 mmHg 54%
    05:00 +19°C° 0 mm 1 mps 665 mmHg 56%
    06:00 +19°C° 0 mm 1 mps 665 mmHg 58%
    07:00 +20°C° 0 mm 1 mps 665 mmHg 72%
    08:00 +23°C° 0 mm 1 mps 666 mmHg 58%
    09:00 +27°C° 0 mm 1 mps 667 mmHg 44%
    10:00 +31°C° 0 mm 1 mps 668 mmHg 30%
    11:00 +33°C° 0 mm 1 mps 667 mmHg 24%
    12:00 +35°C° 0 mm 1 mps 667 mmHg 18%
    13:00 +37°C° 0 mm 1 mps 667 mmHg 12%
    14:00 +36°C° 0 mm 1 mps 666 mmHg 12%
    15:00 +36°C° 0 mm 1 mps 665 mmHg 12%
    16:00 +35°C° 0 mm 1 mps 665 mmHg 11%
    17:00 +34°C° 0 mm 2 mps 665 mmHg 14%
    18:00 +31°C° 0 mm 2 mps 664 mmHg 17%
    19:00 +29°C° 0 mm 2 mps 664 mmHg 19%
    20:00 +28°C° 0 mm 2 mps 664 mmHg 27%
    21:00 +26°C° 0 mm 3 mps 665 mmHg 35%
    22:00 +25°C° 0 mm 3 mps 665 mmHg 42%
    23:00 +23°C° 0 mm 4 mps 665 mmHg 51%

    Tomorrow, 24 August, Thursday

    Time Temperature Precipitation Wind Pressure Humidity
    00:00 +21°C° 0 mm 4 mps 665 mmHg 59%
    01:00 +20°C° 0 mm 4 mps 664 mmHg 68%
    02:00 +19°C° 0 mm 3 mps 664 mmHg 73%
    03:00 +19°C° 0 mm 3 mps 664 mmHg 78%
    04:00 +18°C° 0 mm 3 mps 664 mmHg 83%
    05:00 +18°C° 0 mm 2 mps 664 mmHg 82%
    06:00 +18°C° 0 mm 2 mps 665 mmHg 82%
    07:00 +18°C° 0 mm 2 mps 665 mmHg 81%
    08:00 +21°C° 0 mm 2 mps 666 mmHg 67%
    09:00 +25°C° 0 mm 2 mps 667 mmHg 53%
    10:00 +29°C° 0 mm 2 mps 667 mmHg 39%
    11:00 +31°C° 0 mm 2 mps 667 mmHg 33%
    12:00 +34°C° 0 mm 2 mps 667 mmHg 27%
    13:00 +36°C° 0 mm 2 mps 666 mmHg 21%
    14:00 +36°C° 0 mm 2 mps 666 mmHg 21%
    15:00 +36°C° 0 mm 2 mps 665 mmHg 20%
    16:00 +35°C° 0 mm 2 mps 664 mmHg 19%
    17:00 +34°C° 0 mm 3 mps 664 mmHg 24%
    18:00 +31°C° 0 mm 3 mps 665 mmHg 28%
    19:00 +29°C° 0 mm 4 mps 665 mmHg 32%
    20:00 +28°C° 0 mm 4 mps 665 mmHg 37%
    21:00 +26°C° 0 mm 4 mps 665 mmHg 42%
    22:00 +25°C° 0 mm 4 mps 665 mmHg 48%
    23:00 +23°C° 0 mm 4 mps 665 mmHg 53%

    Day after tomorrow, 25 August, Friday

    Time Temperature Precipitation Wind Pressure Humidity
    00:00 +22°C° 0 mm 4 mps 665 mmHg 59%
    01:00 +20°C° 0 mm 4 mps 664 mmHg 65%
    02:00 +20°C° 0 mm 4 mps 664 mmHg 68%
    03:00 +19°C° 0 mm 3 mps 664 mmHg 70%
    04:00 +18°C° 0 mm 3 mps 664 mmHg 72%
    05:00 +18°C° 0 mm 3 mps 664 mmHg 72%
    06:00 +18°C° 0 mm 3 mps 664 mmHg 73%
    07:00 +18°C° 0 mm 3 mps 664 mmHg 73%
    08:00 +21°C° 0 mm 3 mps 665 mmHg 60%
    09:00 +25°C° 0 mm 3 mps 666 mmHg 48%
    10:00 +29°C° 0 mm 2 mps 667 mmHg 35%
    11:00 +31°C° 0 mm 2 mps 666 mmHg 30%
    12:00 +35°C° 0 mm 2 mps 666 mmHg 24%
    13:00 +37°C° 0 mm 2 mps 666 mmHg 19%
    14:00 +37°C° 0 mm 2 mps 665 mmHg 19%
    15:00 +36°C° 0 mm 2 mps 664 mmHg 19%
    16:00 +36°C° 0 mm 2 mps 664 mmHg 19%
    17:00 +33°C° 0 mm 3 mps 664 mmHg 25%
    18:00 +30°C° 0 mm 3 mps 663 mmHg 31%
    19:00 +28°C° 0 mm 4 mps 663 mmHg 37%
    20:00 +26°C° 0 mm 4 mps 664 mmHg 40%
    21:00 +25°C° 0 mm 4 mps 664 mmHg 44%
    22:00 +24°C° 0 mm 3 mps 664 mmHg 48%
    23:00 +22°C° 0 mm 3 mps 664 mmHg 51%

    26 August, Saturday

    Time Temperature Precipitation Wind Pressure Humidity
    00:00 +21°C° 0 mm 3 mps 664 mmHg 55%
    01:00 +20°C° 0 mm 3 mps 663 mmHg 59%
    02:00 +20°C° 0 mm 3 mps 663 mmHg 64%
    03:00 +19°C° 0 mm 3 mps 663 mmHg 69%
    04:00 +18°C° 0 mm 3 mps 663 mmHg 74%
    05:00 +18°C° 0 mm 3 mps 663 mmHg 75%
    06:00 +18°C° 0 mm 3 mps 663 mmHg 76%
    07:00 +17°C° 0 mm 3 mps 664 mmHg 77%
    08:00 +21°C° 0 mm 2 mps 665 mmHg 65%
    09:00 +25°C° 0 mm 2 mps 665 mmHg 52%
    10:00 +28°C° 0 mm 2 mps 666 mmHg 39%
    11:00 +31°C° 0 mm 2 mps 666 mmHg 33%
    12:00 +34°C° 0 mm 2 mps 665 mmHg 28%
    13:00 +37°C° 0 mm 2 mps 665 mmHg 22%
    14:00 +36°C° 0 mm 2 mps 664 mmHg 21%
    15:00 +36°C° 0 mm 2 mps 664 mmHg 21%
    16:00 +36°C° 0 mm 2 mps 663 mmHg 21%
    17:00 +33°C° 0 mm 3 mps 663 mmHg 28%
    18:00 +29°C° 0 mm 3 mps 663 mmHg 35%
    19:00 +26°C° 0 mm 4 mps 663 mmHg 42%
    20:00 +25°C° 0 mm 4 mps 663 mmHg 47%
    21:00 +22°C° 0 mm 4 mps 663 mmHg 52%
    22:00 +21°C° 0 mm 4 mps 663 mmHg 58%
    23:00 +20°C° 0 mm 4 mps 663 mmHg 63%

    27 August, Sunday

    Time Temperature Precipitation Wind Pressure Humidity
    00:00 +19°C° 0 mm 4 mps 663 mmHg 68%
    01:00 +18°C° 0 mm 3 mps 663 mmHg 73%
    02:00 +17°C° 0 mm 3 mps 663 mmHg 77%
    03:00 +17°C° 0 mm 3 mps 663 mmHg 80%
    04:00 +16°C° 0 mm 3 mps 663 mmHg 83%
    05:00 +16°C° 0 mm 3 mps 663 mmHg 82%
    06:00 +17°C° 0 mm 3 mps 664 mmHg 81%
    07:00 +17°C° 0 mm 3 mps 664 mmHg 80%
    08:00 +20°C° 0 mm 2 mps 665 mmHg 65%
    09:00 +25°C° 0 mm 2 mps 666 mmHg 50%
    10:00 +29°C° 0 mm 2 mps 667 mmHg 35%
    11:00 +31°C° 0 mm 2 mps 666 mmHg 30%
    12:00 +35°C° 0 mm 2 mps 666 mmHg 25%
    13:00 +37°C° 0 mm 2 mps 666 mmHg 20%
    14:00 +37°C° 0 mm 2 mps 665 mmHg 19%
    15:00 +37°C° 0 mm 2 mps 665 mmHg 19%
    16:00 +36°C° 0 mm 2 mps 664 mmHg 18%
    17:00 +35°C° 0 mm 2 mps 664 mmHg 21%
    18:00 +32°C° 0 mm 2 mps 664 mmHg 24%
    19:00 +30°C° 0 mm 2 mps 665 mmHg 28%
    20:00 +28°C° 0 mm 2 mps 665 mmHg 32%
    21:00 +27°C° 0 mm 2 mps 665 mmHg 37%
    22:00 +25°C° 0 mm 3 mps 665 mmHg 41%
    23:00 +24°C° 0 mm 3 mps 664 mmHg 46%

    28 August, Monday

    Time Temperature Precipitation Wind Pressure Humidity
    00:00 +22°C° 0 mm 3 mps 664 mmHg 51%
    01:00 +20°C° 0 mm 3 mps 664 mmHg 56%
    02:00 +19°C° 0 mm 3 mps 663 mmHg 62%
    03:00 +18°C° 0 mm 3 mps 663 mmHg 69%
    04:00 +17°C° 0 mm 3 mps 663 mmHg 75%
    05:00 +17°C° 0 mm 3 mps 664 mmHg 76%
    06:00 +17°C° 0 mm 2 mps 664 mmHg 76%
    07:00 +17°C° 0 mm 2 mps 664 mmHg 77%
    08:00 +21°C° 0 mm 2 mps 665 mmHg 63%
    09:00 +25°C° 0 mm 2 mps 666 mmHg 50%
    10:00 +29°C° 0 mm 2 mps 666 mmHg 36%
    11:00 +31°C° 0 mm 2 mps 666 mmHg 31%
    12:00 +35°C° 0 mm 2 mps 666 mmHg 27%
    13:00 +37°C° 0 mm 2 mps 666 mmHg 22%
    14:00 +37°C° 0 mm 2 mps 665 mmHg 22%
    15:00 +36°C° 0 mm 2 mps 665 mmHg 21%
    16:00 +36°C° 0 mm 2 mps 664 mmHg 21%
    17:00 +34°C° 0 mm 3 mps 664 mmHg 25%
    18:00 +31°C° 0 mm 3 mps 664 mmHg 29%
    19:00 +29°C° 0 mm 4 mps 665 mmHg 32%
    20:00 +27°C° 0 mm 4 mps 665 mmHg 36%
    21:00 +26°C° 0 mm 4 mps 665 mmHg 40%
    22:00 +23°C° 0 mm 4 mps 665 mmHg 44%
    23:00 +22°C° 0 mm 4 mps 665 mmHg 50%
    Show more